Location: Mentone
(34.5413°N, 85.5351°W)
Time: 16:55:17
(UTC-05:00)

UOSAT-12 - Visible Passes

Search period start: 30 September 2014 00:00
Search period end: 10 October 2014 00:00
Orbit: 594 x 664 km, 64.6° (Epoch: 30 September)

Date Brightness Start Highest point End Pass type
(mag) Time Alt. Az. Time Alt. Az. Time Alt. Az.
30 Sep 9.6 05:34:00 10° N 05:37:41 22° NE 05:41:19 10° ESE visible
01 Oct 8.3 05:53:52 10° NNW 05:58:25 47° ENE 06:02:54 10° SE visible
01 Oct 9.3 20:01:55 10° S 20:02:22 12° S 20:02:22 12° S visible
02 Oct 10.1 04:36:01 10° NNE 04:38:17 13° NE 04:40:32 10° ENE visible
02 Oct 8.0 20:21:44 10° SSW 20:24:35 38° SSW 20:24:35 38° SSW visible
03 Oct 9.3 04:55:11 10° N 04:59:11 27° NE 05:03:08 10° ESE visible
03 Oct 8.6 19:04:12 10° SSE 19:07:07 17° ESE 19:09:15 13° ENE visible
03 Oct 8.2 20:42:28 10° SW 20:46:43 43° WNW 20:46:43 43° WNW visible
04 Oct 7.7 05:15:12 10° NNW 05:19:52 59° ENE 05:24:26 10° SE visible
04 Oct 7.5 19:23:03 10° S 19:27:20 40° ESE 19:31:08 13° NE visible
04 Oct 9.5 21:04:09 10° W 21:07:37 21° NW 21:08:35 19° NNW visible
05 Oct 9.9 03:56:56 10° N 03:59:50 16° NE 04:02:42 10° E visible
05 Oct 7.2 05:35:43 10° NW 05:40:20 57° WSW 05:44:51 10° SSE visible
05 Oct 7.2 19:43:08 10° SSW 19:47:44 83° WNW 19:52:26 10° NNE visible
05 Oct 10.3 21:28:19 10° NW 21:28:37 10° NW 21:28:54 10° NW visible
06 Oct 8.8 04:18:34 22° N 04:20:40 32° NE 04:24:50 10° ESE visible
06 Oct 8.3 05:56:54 10° WNW 06:00:37 23° WSW 06:04:16 10° SSW visible
06 Oct 8.7 20:04:05 10° WSW 20:08:19 35° NW 20:12:39 10° NNE visible
07 Oct 7.2 04:40:43 65° N 04:41:17 75° ENE 04:45:54 10° SE visible
07 Oct 7.3 18:44:15 10° S 18:48:41 51° ESE 18:53:14 10° NE visible
07 Oct 9.8 20:26:04 10° W 20:29:08 17° NW 20:32:14 10° N visible
08 Oct 7.9 05:02:55 36° SSW 05:02:55 36° SSW 05:06:04 10° S visible
08 Oct 7.6 19:04:33 10° SW 19:09:08 66° WNW 19:13:49 10° NNE visible
09 Oct 9.4 05:25:03 10° SSW 05:25:03 10° SSW 05:25:07 10° SSW visible
09 Oct 9.1 19:25:45 10° WSW 19:29:46 29° NW 19:33:53 10° N visible
